EHI
0 0 0 0 0 0 0 0 0 0 0 0 0 0 0 0 0 0 0 0 0 0 0 0 0 0 0 0 0 0 0 0 0 0 0 0 0 1 2 2 1 0 0 0
0 0 0 0 0 0 0 0 0 0 0 0 0 0 0 0 0 0 0 0 0 0 0 0 0 0 0 0 0 0 0 0 0 0 0 0 0 0 1 1 0 0 0 0
0 0 0 0 0 0 0 0 0 0 0 0 0 0 0 0 0 0 0 0 0 0 0 0 0 0 0 0 0 0 0 0 0 0 0 0 0 0 0 0 0 0 0 0
0 0 0 0 0 0 0 0 0 0 0 0 0 0 0 0 0 0 0 0 0 0 0 0 0 0 0 0 0 0 0 0 0 0 0 0 0 0 0 0 0 0 0 0
0 0 0 0 0 0 0 0 0 0 0 0 0 0 0 0 0 0 0 0 0 0 0 0 0 0 0 0 0 0 0 0 0 0 0 0 0 0 0 0 0 0 0 0
0 0 0 0 0 0 0 0 0 0 0 0 0 0 0 0 0 0 0 0 0 0 0 0 0 0 0 0 0 0 0 0 0 0 0 0 0 0 0 0 0 0 0 0
0 0 0 0 0 0 0 0 0 0 0 0 0 0 0 0 0 0 0 0 0 0 0 0 0 0 0 0 0 0 0 0 0 0 0 0 0 0 0 0 0 0 0 0
0 0 0 0 0 0 0 0 0 0 0 0 0 0 0 0 0 0 0 0 0 0 0 0 0 0 0 0 0 0 0 0 0 0 0 0 0 0 0 0 0 0 0 0
0 0 0 0 0 0 0 0 0 0 0 0 0 0 0 0 0 0 0 0 0 0 0 0 0 0 0 0 0 0 0 0 0 0 0 0 0 0 0 0 0 0 0 0
0 0 0 0 0 0 0 0 0 0 0 0 0 0 0 0 0 0 0 0 0 0 0 0 0 0 0 0 0 0 0 0 0 0 0 0 0 0 0 0 0 0 0 0
0 0 0 0 0 0 0 0 0 0 0 0 0 0 0 0 0 0 0 0 0 0 0 0 0 0 0 0 0 0 0 0 0 0 0 0 0 0 0 0 0 0 0 0
0 0 0 0 0 0 0 0 0 0 0 0 0 0 0 0 0 0 0 0 0 0 0 0 0 0 0 0 0 0 0 0 0 0 0 0 0 0 0 0 0 0 0 0
0 0 0 0 0 0 0 0 0 0 0 0 0 0 0 0 0 0 0 0 0 0 0 0 0 0 0 0 0 0 0 0 0 0 0 0 0 0 0 0 0 0 0 0
0 0 0 0 0 0 0 0 0 0 0 0 0 0 0 0 0 0 0 0 0 0 0 0 0 0 0 0 0 0 0 0 0 0 0 0 0 0 0 0 0 0 0 0
0 0 0 0 0 0 0 0 0 0 0 0 0 0 0 0 0 0 0 0 0 0 0 0 0 0 0 0 0 0 0 0 0 0 0 0 0 0 0 0 0 0 0 0
0 0 0 0 0 0 0 0 0 0 0 0 0 0 0 0 0 0 0 0 0 0 0 0 0 0 0 0 0 0 0 0 0 0 0 0 0 0 0 0 0 0 0 0
0 0 0 0 0 0 0 0 0 0 0 0 0 0 0 0 0 0 0 0 0 0 0 0 0 0 0 0 0 0 0 0 0 0 0 0 0 0 0 0 0 0 0 0
0 0 0 0 0 0 0 0 0 0 0 0 0 0 0 0 0 0 0 0 0 0 0 0 0 0 0 0 0 0 0 0 0 0 0 0 0 0 0 0 0 0 0 0
0 0 0 0 0 0 0 0 0 0 0 0 0 0 0 0 0 0 0 0 0 0 0 0 0 0 0 0 0 0 0 0 0 0 0 0 0 0 0 0 0 0 0 0
0 0 0 0 0 0 0 0 0 0 0 0 0 0 0 0 0 0 0 0 0 0 0 0 0 0 0 0 0 0 0 0 0 0 0 0 0 0 0 0 0 0 0 0
0 0 0 0 0 0 0 0 0 0 0 0 0 0 0 0 0 0 0 0 0 0 0 0 0 0 0 0 0 0 0 0 0 0 0 0 0 0 0 0 0 0 0 0
0 0 0 0 0 0 0 0 0 0 0 0 0 0 0 0 0 0 0 0 0 0 0 0 0 0 0 0 0 0 0 0 0 0 0 0 0 0 0 0 0 0 0 0
0 0 0 0 0 0 0 0 0 0 0 0 0 0 0 0 0 0 0 0 0 0 0 0 0 0 0 0 0 0 0 0 0 0 0 0 0 0 0 0 0 0 0 0
0 0 0 0 0 0 0 0 0 0 0 0 0 0 0 0 0 0 0 0 0 0 0 0 0 0 0 0 0 0 0 0 0 0 0 0 0 0 0 0 0 0 0 0
0 0 0 0 0 0 0 0 0 0 0 0 0 0 0 0 0 0 0 0 0 0 0 0 0 0 0 0 0 0 0 0 0 0 0 0 0 0 0 0 0 0 0 0
0 0 0 0 0 0 0 0 0 0 0 0 0 0 0 0 0 0 0 0 0 0 0 0 0 0 0 0 0 0 0 0 0 0 0 0 0 0 0 0 0 0 0 0
Wind_Speed
5 6 13 16 15 5 4 5 6 6 3 4 9 12 11 6 5 6 6 6 6 7 5 3 3 3 4 3 4 4 4 3 3 3 3 3 3 2 2 2 2 3 3 4
4 14 14 7 8 7 5 6 6 4 2 4 6 11 10 8 8 8 8 8 7 5 3 2 2 3 4 5 5 4 4 4 5 4 3 3 3 2 2 2 2 2 3 4
15 7 7 8 8 11 12 10 7 4 2 2 4 9 6 5 5 5 6 7 6 7 6 5 4 4 4 4 5 5 5 5 5 4 3 3 3 2 2 1 1 2 3 3
12 8 5 9 11 12 13 9 7 5 3 4 2 7 6 5 4 6 7 6 6 6 6 5 5 4 5 6 5 5 5 5 5 5 5 6 5 4 3 2 2 2 3 3
8 6 8 11 11 11 6 5 7 6 5 4 3 5 9 3 5 7 6 6 5 5 5 5 5 5 5 4 4 4 4 4 5 5 6 6 4 3 3 2 2 2 2 3
7 3 7 8 5 8 5 3 2 2 3 8 9 7 9 5 7 5 4 3 3 3 3 3 3 2 2 2 3 3 4 5 5 6 6 6 6 5 5 4 3 2 1 2
6 5 3 2 4 6 6 5 3 4 6 8 7 7 10 6 5 5 4 3 2 2 1 1 2 2 2 3 4 4 5 5 6 7 6 7 7 7 7 6 4 3 2 2
4 6 5 3 6 7 10 9 8 7 6 3 4 8 7 4 3 1 1 1 0 1 0 1 1 2 2 2 3 4 5 5 6 7 7 6 6 5 4 5 5 4 3 2
3 6 3 3 3 7 6 7 4 3 1 2 5 5 7 2 2 2 2 2 1 1 1 1 1 1 2 2 3 4 4 4 6 6 6 6 6 5 5 5 4 3 3 3
2 5 4 3 1 3 4 5 3 4 5 6 5 5 4 3 2 1 1 1 1 1 2 1 1 1 1 2 2 2 3 4 4 6 6 5 6 6 5 5 5 4 3 3
2 3 4 1 3 4 3 4 3 3 3 4 4 5 3 4 2 1 2 2 1 1 1 2 2 1 0 0 1 2 2 2 3 5 6 6 5 5 5 5 5 5 4 4
3 2 3 4 2 1 3 4 4 4 4 3 3 5 2 1 0 0 1 1 1 1 2 2 2 1 1 1 1 1 1 2 3 5 5 6 6 6 5 5 5 5 5 4
3 2 2 2 0 1 0 1 3 2 2 3 4 5 2 3 3 2 2 2 2 3 3 3 3 2 1 0 0 1 1 2 2 4 5 5 5 6 6 6 5 5 5 5
4 2 3 5 3 2 4 4 2 2 3 4 5 5 4 4 4 4 3 2 1 2 2 2 3 2 1 0 1 1 1 1 2 4 5 5 6 6 6 5 5 5 5 5
2 2 3 5 5 4 5 6 5 6 6 6 6 5 6 5 4 4 3 2 2 3 2 2 2 2 2 1 0 1 1 2 2 4 4 4 4 5 5 5 5 5 5 5
2 2 2 4 3 3 4 6 5 6 5 5 5 6 4 3 2 3 3 3 3 3 3 3 3 2 2 1 1 0 1 2 3 4 4 4 4 5 5 5 5 5 5 5
2 1 1 3 3 2 2 4 3 1 2 2 5 5 4 3 4 4 4 4 4 4 4 4 3 3 3 2 1 1 2 2 3 4 4 4 5 5 5 5 5 5 5 5
3 2 1 2 2 1 2 2 3 1 2 3 3 5 5 4 5 4 3 4 5 5 5 4 3 3 2 2 1 1 2 2 3 4 4 4 5 5 4 5 5 5 5 5
4 3 1 0 0 2 4 5 6 4 4 5 5 7 7 7 5 4 4 4 5 5 5 4 3 2 2 1 1 2 2 2 3 3 3 4 5 5 5 5 4 4 5 5
2 1 1 0 0 1 4 9 10 2 3 7 8 9 8 7 5 6 7 8 7 6 5 3 2 1 1 1 1 3 2 3 3 3 3 4 5 5 5 5 4 3 4 4
4 2 1 0 1 2 6 11 7 3 5 10 9 8 7 5 5 8 9 8 6 5 4 3 1 0 1 0 2 3 2 2 1 2 3 3 4 4 4 4 3 4 4 4
2 2 1 1 1 4 8 7 5 4 7 8 8 8 7 6 7 7 7 8 7 5 4 3 1 1 1 1 2 3 2 1 2 3 3 3 3 3 3 4 3 4 4 4
2 1 0 1 2 4 5 4 5 6 7 8 8 9 8 7 7 8 7 7 6 5 5 3 2 2 2 2 2 2 1 2 3 3 3 3 3 3 3 3 4 3 4 4
4 4 1 1 3 5 6 6 7 7 8 8 8 9 8 7 7 7 7 7 6 5 5 3 3 3 3 3 2 2 1 2 3 3 3 3 3 2 2 2 2 3 4 4
4 3 2 2 4 6 6 8 9 10 10 9 9 8 8 7 7 6 6 6 5 5 5 4 3 3 3 2 2 2 2 3 3 3 2 2 2 2 2 1 1 1 2 4
4 3 2 3 5 5 8 9 10 10 10 10 10 10 9 8 7 7 6 5 5 5 4 4 4 4 3 3 3 2 1 3 3 2 2 2 2 2 2 2 1 1 1 2
Wind_Direction
184 192 211 208 205 210 177 193 229 238 226 206 236 253 262 260 245 247 245 233 232 236 240 214 198 180 165 171 178 182 176 178 164 158 164 169 177 170 164 169 169 165 164 165
196 225 221 201 199 217 217 226 240 269 236 220 258 266 263 244 232 230 234 234 230 236 236 212 192 170 170 178 186 185 184 174 173 174 169 162 154 154 159 150 150 160 162 165
213 228 192 192 201 210 223 219 218 233 329 290 297 289 260 252 227 231 229 227 223 215 216 206 194 189 180 185 188 188 188 177 172 163 140 123 106 100 105 121 155 166 165 165
232 241 203 200 210 201 232 214 206 214 226 262 215 281 276 250 258 242 235 229 224 217 210 201 193 194 197 203 192 185 181 175 170 165 159 153 154 160 175 173 167 154 155 159
234 209 211 215 214 193 218 181 193 202 203 247 221 246 279 258 255 248 232 227 224 215 200 198 197 200 202 200 189 185 176 175 171 174 171 171 170 159 143 132 129 138 145 145
254 238 211 218 212 187 157 121 145 174 186 240 211 204 269 227 227 238 228 224 223 214 202 196 184 176 192 192 180 176 174 179 176 178 178 179 171 158 146 146 152 149 140 143
274 255 242 179 169 172 161 153 185 207 212 237 177 196 247 236 231 220 225 240 221 198 178 172 165 176 191 189 186 182 180 184 181 180 183 184 183 172 170 170 169 160 154 159
249 258 219 203 190 188 194 183 186 200 210 240 175 220 249 261 267 234 197 221 97 65 71 208 209 200 206 197 186 180 187 191 184 182 184 181 178 175 175 171 167 170 175 172
249 263 280 249 207 162 180 208 196 164 180 210 232 264 298 314 354 27 40 43 20 345 317 268 242 215 211 206 200 190 189 187 186 182 176 173 173 172 171 167 161 163 163 158
259 269 284 278 177 171 165 159 150 182 190 223 240 238 241 249 266 19 38 321 310 329 339 334 321 282 235 206 192 176 182 192 184 177 176 173 173 171 167 159 157 156 157 154
288 262 295 274 191 188 146 162 168 186 209 195 222 250 227 204 184 208 247 248 242 296 326 333 331 316 290 127 141 163 177 167 170 175 173 167 169 164 158 162 166 164 159 160
315 273 263 251 251 184 152 174 166 184 216 204 210 259 312 171 108 342 309 324 350 4 4 354 342 351 53 88 142 172 174 166 176 172 167 167 165 159 159 165 165 157 156 158
322 317 317 324 323 41 105 209 191 180 157 189 200 255 324 17 9 12 9 -0 359 8 10 10 6 358 11 84 150 167 172 177 165 153 155 158 162 164 168 167 160 156 152 147
319 241 222 230 252 290 278 274 236 184 204 225 224 243 295 336 340 340 343 345 345 359 2 358 351 337 333 355 150 150 163 155 150 149 152 162 171 173 171 164 156 155 152 147
2 269 258 267 278 273 277 273 245 218 212 216 239 247 277 296 295 297 304 328 345 341 336 325 323 320 326 348 84 137 148 145 146 150 155 169 166 159 155 152 153 149 146 145
356 280 291 282 265 275 287 296 269 248 234 233 247 267 292 304 322 326 319 320 318 309 302 301 306 309 307 299 283 160 164 157 145 153 163 163 153 148 150 150 148 143 140 136
305 272 288 277 303 1 323 313 275 245 306 251 246 270 323 332 328 317 312 309 297 296 292 292 285 276 271 266 247 211 188 155 147 157 160 154 149 149 153 150 144 145 144 137
236 247 253 290 19 220 255 342 349 327 342 339 317 319 327 307 301 301 301 295 303 309 300 292 283 284 285 270 243 191 153 147 151 157 159 155 151 149 147 146 150 150 145 145
213 206 207 278 216 281 326 358 346 316 323 348 329 328 334 328 328 325 349 336 315 309 305 294 283 279 283 257 193 148 139 140 140 153 161 161 155 150 150 153 157 153 145 143
55 134 134 123 169 253 333 326 320 304 320 353 342 329 328 338 329 311 338 332 322 316 312 305 299 312 294 286 144 134 140 141 155 162 158 153 152 152 157 161 157 149 141 142
355 15 50 209 254 292 330 326 346 40 313 326 327 325 331 321 293 302 317 322 320 316 317 323 332 311 287 273 115 118 122 146 162 135 128 128 138 147 152 149 146 141 136 132
0 10 7 45 22 298 340 357 17 315 310 326 332 333 331 325 322 324 328 330 332 335 337 347 16 7 17 72 110 106 111 121 109 107 109 115 121 132 139 139 141 143 143 142
26 346 239 181 235 294 337 347 327 325 328 335 336 332 331 330 332 336 338 339 341 349 351 2 35 31 24 39 94 110 101 104 104 100 106 114 116 124 139 146 153 156 159 161
347 353 13 332 313 331 344 351 348 345 338 335 334 333 336 334 334 338 341 345 351 356 359 10 39 47 30 27 50 85 93 97 102 106 109 117 120 122 126 140 159 169 175 174
336 348 353 320 316 331 345 349 344 342 344 345 344 344 343 343 344 345 346 348 352 357 358 9 29 41 30 35 46 52 89 102 101 100 104 116 120 129 124 124 154 180 204 195
0 355 345 308 317 315 312 328 341 345 346 345 345 346 349 353 348 350 350 352 356 1 6 14 23 29 25 32 33 23 55 106 116 113 113 116 119 121 123 116 65 22 173 190